Time,TemperatureF,DewpointF,PressureIn,WindDirection,WindDirectionDegrees,WindSpeedMPH,WindSpeedGustMPH,Humidity,HourlyPrecipIn,Conditions,Clouds,dailyrainin,SoftwareType,DateUTC
2013-02-22 00:02:00,29.2,20.6,29.90,SSW,203,4.0,4.9,70,0.00,,,0.00,WUHU216HW,2013-02-22 07:02:00,
2013-02-22 00:07:00,29.2,20.6,29.90,SSW,203,2.5,4.7,70,0.00,,,0.00,WUHU216HW,2013-02-22 07:07:00,
2013-02-22 00:12:00,29.2,20.6,29.89,SSE,158,3.8,3.8,70,0.00,,,0.00,WUHU216HW,2013-02-22 07:12:00,
2013-02-22 00:17:00,29.2,20.3,29.89,SE,135,2.2,4.7,69,0.00,,,0.00,WUHU216HW,2013-02-22 07:17:00,
2013-02-22 00:22:00,29.0,20.4,29.90,SE,135,3.4,4.7,70,0.00,,,0.00,WUHU216HW,2013-02-22 07:22:00,
2013-02-22 00:27:00,28.8,20.4,29.90,SE,135,2.2,3.8,70,0.00,,,0.00,WUHU216HW,2013-02-22 07:27:00,
2013-02-22 00:32:00,28.8,20.4,29.90,SE,135,2.9,3.8,70,0.00,,,0.00,WUHU216HW,2013-02-22 07:32:00,
2013-02-22 00:37:00,28.8,20.4,29.90,SE,135,3.4,3.4,70,0.00,,,0.00,WUHU216HW,2013-02-22 07:37:00,
2013-02-22 00:42:00,28.8,20.4,29.90,SSE,158,3.1,3.4,70,0.00,,,0.00,WUHU216HW,2013-02-22 07:42:00,
2013-02-22 00:47:00,29.0,20.4,29.90,SSE,158,2.0,3.4,70,0.00,,,0.00,WUHU216HW,2013-02-22 07:47:00,
2013-02-22 00:52:00,29.0,20.4,29.90,SSE,158,2.2,2.7,70,0.00,,,0.00,WUHU216HW,2013-02-22 07:52:00,
2013-02-22 00:57:00,29.0,20.4,29.90,South,180,3.6,3.6,70,0.00,,,0.00,WUHU216HW,2013-02-22 07:57:00,
2013-02-22 01:02:00,29.0,20.4,29.90,SW,225,4.7,6.9,70,0.00,,,0.00,WUHU216HW,2013-02-22 08:02:00,
2013-02-22 01:07:00,29.2,20.6,29.90,SW,225,3.4,6.9,70,0.00,,,0.00,WUHU216HW,2013-02-22 08:07:00,
2013-02-22 01:12:00,29.3,21.1,29.90,SW,225,5.4,6.9,71,0.00,,,0.00,WUHU216HW,2013-02-22 08:12:00,
2013-02-22 01:17:00,29.3,20.8,29.90,SW,225,6.7,8.1,70,0.00,,,0.00,WUHU216HW,2013-02-22 08:17:00,
2013-02-22 01:22:00,29.5,21.2,29.90,SW,225,6.9,8.5,71,0.00,,,0.00,WUHU216HW,2013-02-22 08:22:00,
2013-02-22 01:27:00,29.5,21.2,29.90,South,180,5.8,8.5,71,0.00,,,0.00,WUHU216HW,2013-02-22 08:27:00,
2013-02-22 01:32:00,29.5,21.2,29.90,SSW,203,6.5,7.4,71,0.00,,,0.00,WUHU216HW,2013-02-22 08:32:00,
2013-02-22 01:37:00,29.3,21.4,29.91,SW,225,9.4,9.4,72,0.00,,,0.00,WUHU216HW,2013-02-22 08:37:00,
2013-02-22 01:42:00,29.3,21.4,29.91,SSW,203,9.2,9.4,72,0.00,,,0.00,WUHU216HW,2013-02-22 08:42:00,
2013-02-22 01:47:00,29.2,21.2,29.91,SSW,203,8.3,9.4,72,0.00,,,0.00,WUHU216HW,2013-02-22 08:47:00,
2013-02-22 01:52:00,29.2,21.0,29.91,South,180,6.3,9.8,71,0.00,,,0.00,WUHU216HW,2013-02-22 08:52:00,
2013-02-22 01:57:00,29.2,21.0,29.91,SSE,158,4.9,10.5,71,0.00,,,0.00,WUHU216HW,2013-02-22 08:57:00,
2013-02-22 02:02:00,29.0,20.8,29.91,SSE,158,5.4,10.5,71,0.00,,,0.00,WUHU216HW,2013-02-22 09:02:00,
2013-02-22 02:07:00,28.8,20.6,29.91,SSE,158,3.4,9.2,71,0.00,,,0.00,WUHU216HW,2013-02-22 09:07:00,
2013-02-22 02:12:00,28.8,20.6,29.91,SSW,203,4.0,5.4,71,0.00,,,0.00,WUHU216HW,2013-02-22 09:12:00,
2013-02-22 02:17:00,28.6,20.8,29.91,South,180,4.0,5.1,72,0.00,,,0.00,WUHU216HW,2013-02-22 09:17:00,
2013-02-22 02:22:00,28.4,20.6,29.91,SSE,158,2.9,6.3,72,0.00,,,0.00,WUHU216HW,2013-02-22 09:22:00,
2013-02-22 02:27:00,28.4,20.6,29.91,SE,135,1.8,6.3,72,0.00,,,0.00,WUHU216HW,2013-02-22 09:27:00,
2013-02-22 02:32:00,28.3,20.4,29.92,SE,135,1.8,3.4,72,0.00,,,0.00,WUHU216HW,2013-02-22 09:32:00,
2013-02-22 02:37:00,28.1,20.3,29.91,SE,135,0.2,2.5,72,0.00,,,0.00,WUHU216HW,2013-02-22 09:37:00,
2013-02-22 02:42:00,27.7,20.2,29.91,SE,135,0.7,1.8,73,0.00,,,0.00,WUHU216HW,2013-02-22 09:42:00,
2013-02-22 02:47:00,27.4,19.5,29.92,ESE,113,1.3,2.0,72,0.00,,,0.00,WUHU216HW,2013-02-22 09:47:00,
2013-02-22 02:52:00,27.2,19.6,29.91,SE,135,1.3,2.0,73,0.00,,,0.00,WUHU216HW,2013-02-22 09:52:00,
2013-02-22 02:57:00,27.2,19.6,29.91,SE,135,3.4,3.4,73,0.00,,,0.00,WUHU216HW,2013-02-22 09:57:00,
2013-02-22 03:02:00,27.4,19.8,29.91,ESE,113,2.5,3.4,73,0.00,,,0.00,WUHU216HW,2013-02-22 10:02:00,
2013-02-22 03:07:00,27.4,20.2,29.91,SE,135,2.5,3.4,74,0.00,,,0.00,WUHU216HW,2013-02-22 10:07:00,
2013-02-22 03:12:00,27.4,20.2,29.91,SSE,158,1.8,3.4,74,0.00,,,0.00,WUHU216HW,2013-02-22 10:12:00,
2013-02-22 03:17:00,27.4,20.2,29.91,ESE,113,1.8,3.4,74,0.00,,,0.00,WUHU216HW,2013-02-22 10:17:00,
2013-02-22 03:22:00,27.4,19.8,29.91,ESE,113,2.7,3.4,73,0.00,,,0.00,WUHU216HW,2013-02-22 10:22:00,
2013-02-22 03:27:00,27.4,19.8,29.91,SSW,203,3.1,4.5,73,0.00,,,0.00,WUHU216HW,2013-02-22 10:27:00,
2013-02-22 03:32:00,27.5,20.4,29.91,SSE,158,4.0,4.5,74,0.00,,,0.00,WUHU216HW,2013-02-22 10:32:00,
2013-02-22 03:37:00,27.7,20.2,29.91,SE,135,2.9,5.1,73,0.00,,,0.00,WUHU216HW,2013-02-22 10:37:00,
2013-02-22 03:42:00,27.7,20.2,29.91,SE,135,2.5,5.1,73,0.00,,,0.00,WUHU216HW,2013-02-22 10:42:00,
2013-02-22 03:47:00,27.7,19.9,29.91,SSE,158,2.9,4.9,72,0.00,,,0.00,WUHU216HW,2013-02-22 10:47:00,
2013-02-22 03:52:00,27.7,20.2,29.91,SE,135,2.5,4.9,73,0.00,,,0.00,WUHU216HW,2013-02-22 10:52:00,
2013-02-22 03:57:00,27.7,19.9,29.91,SSE,158,2.5,3.4,72,0.00,,,0.00,WUHU216HW,2013-02-22 10:57:00,
2013-02-22 04:02:00,27.7,19.9,29.91,SE,135,2.0,2.9,72,0.00,,,0.00,WUHU216HW,2013-02-22 11:02:00,
2013-02-22 04:07:00,27.4,19.5,29.91,SW,225,0.4,2.5,72,0.00,,,0.00,WUHU216HW,2013-02-22 11:07:00,
2013-02-22 04:12:00,27.2,19.4,29.91,SW,225,0.4,2.0,72,0.00,,,0.00,WUHU216HW,2013-02-22 11:12:00,
2013-02-22 04:17:00,27.0,19.2,29.91,SSW,203,0.0,1.1,72,0.00,,,0.00,WUHU216HW,2013-02-22 11:17:00,
2013-02-22 04:22:00,26.6,19.1,29.91,ESE,113,1.1,2.7,73,0.00,,,0.00,WUHU216HW,2013-02-22 11:22:00,
2013-02-22 04:27:00,26.5,18.9,29.91,SE,135,1.3,2.7,73,0.00,,,0.00,WUHU216HW,2013-02-22 11:27:00,
2013-02-22 04:32:00,26.5,19.3,29.91,SE,135,3.6,3.6,74,0.00,,,0.00,WUHU216HW,2013-02-22 11:32:00,
2013-02-22 04:37:00,26.5,19.3,29.91,SSE,158,2.5,3.6,74,0.00,,,0.00,WUHU216HW,2013-02-22 11:37:00,
2013-02-22 04:42:00,26.5,19.3,29.91,SSE,158,2.0,2.9,74,0.00,,,0.00,WUHU216HW,2013-02-22 11:42:00,
2013-02-22 04:47:00,26.3,19.1,29.91,SE,135,3.1,3.1,74,0.00,,,0.00,WUHU216HW,2013-02-22 11:47:00,
2013-02-22 04:52:00,26.3,19.1,29.91,SSE,158,4.5,4.5,74,0.00,,,0.00,WUHU216HW,2013-02-22 11:52:00,
2013-02-22 04:57:00,26.3,19.1,29.91,SE,135,3.4,4.5,74,0.00,,,0.00,WUHU216HW,2013-02-22 11:57:00,
2013-02-22 05:02:00,26.5,19.3,29.91,SE,135,2.2,4.5,74,0.00,,,0.00,WUHU216HW,2013-02-22 12:02:00,
2013-02-22 05:07:00,26.5,19.3,29.92,SSE,158,4.0,4.5,74,0.00,,,0.00,WUHU216HW,2013-02-22 12:07:00,
2013-02-22 05:12:00,26.3,19.1,29.92,SE,135,2.5,4.5,74,0.00,,,0.00,WUHU216HW,2013-02-22 12:12:00,
2013-02-22 05:17:00,26.1,18.9,29.91,SE,135,1.8,3.8,74,0.00,,,0.00,WUHU216HW,2013-02-22 12:17:00,
2013-02-22 05:22:00,25.9,18.7,29.91,SE,135,1.6,2.9,74,0.00,,,0.00,WUHU216HW,2013-02-22 12:22:00,
2013-02-22 05:27:00,25.6,18.7,29.92,SE,135,2.5,2.9,75,0.00,,,0.00,WUHU216HW,2013-02-22 12:27:00,
2013-02-22 05:32:00,25.6,18.7,29.92,SE,135,1.6,2.5,75,0.00,,,0.00,WUHU216HW,2013-02-22 12:32:00,
2013-02-22 05:37:00,25.6,18.7,29.92,SE,135,1.6,2.5,75,0.00,,,0.00,WUHU216HW,2013-02-22 12:37:00,
2013-02-22 05:42:00,25.7,18.8,29.92,SSE,158,1.6,3.1,75,0.00,,,0.00,WUHU216HW,2013-02-22 12:42:00,
2013-02-22 05:47:00,25.9,18.7,29.92,South,180,1.8,3.1,74,0.00,,,0.00,WUHU216HW,2013-02-22 12:47:00,
2013-02-22 05:52:00,25.9,18.7,29.92,SE,135,4.7,4.7,74,0.00,,,0.00,WUHU216HW,2013-02-22 12:52:00,
2013-02-22 05:57:00,26.3,19.1,29.92,SE,135,2.0,4.7,74,0.00,,,0.00,WUHU216HW,2013-02-22 12:57:00,
2013-02-22 06:02:00,26.5,18.9,29.93,SE,135,1.3,4.7,73,0.00,,,0.00,WUHU216HW,2013-02-22 13:02:00,
2013-02-22 06:07:00,26.8,19.0,29.93,South,180,2.0,4.0,72,0.00,,,0.00,WUHU216HW,2013-02-22 13:07:00,
2013-02-22 06:12:00,26.8,19.0,29.93,SE,135,2.0,3.4,72,0.00,,,0.00,WUHU216HW,2013-02-22 13:12:00,
2013-02-22 06:17:00,26.5,18.6,29.93,SE,135,1.6,3.1,72,0.00,,,0.00,WUHU216HW,2013-02-22 13:17:00,
2013-02-22 06:22:00,26.1,18.3,29.93,SE,135,1.1,2.5,72,0.00,,,0.00,WUHU216HW,2013-02-22 13:22:00,
2013-02-22 06:27:00,25.9,18.1,29.93,WSW,248,0.7,2.5,72,0.00,,,0.00,WUHU216HW,2013-02-22 13:27:00,
2013-02-22 06:32:00,25.7,18.3,29.93,SE,135,2.5,3.8,73,0.00,,,0.00,WUHU216HW,2013-02-22 13:32:00,
2013-02-22 06:37:00,25.7,18.3,29.93,SSE,158,0.0,3.8,73,0.00,,,0.00,WUHU216HW,2013-02-22 13:37:00,
2013-02-22 06:42:00,25.6,18.1,29.92,SSE,158,0.7,1.6,73,0.00,,,0.00,WUHU216HW,2013-02-22 13:42:00,
2013-02-22 06:47:00,25.2,17.7,29.92,ENE,68,1.8,1.8,73,0.00,,,0.00,WUHU216HW,2013-02-22 13:47:00,
2013-02-22 06:52:00,25.0,17.6,29.93,ENE,68,0.4,1.8,73,0.00,,,0.00,WUHU216HW,2013-02-22 13:52:00,
2013-02-22 06:57:00,24.8,17.4,29.93,ENE,68,0.7,1.1,73,0.00,,,0.00,WUHU216HW,2013-02-22 13:57:00,
2013-02-22 07:02:00,25.0,17.6,29.93,East,90,1.1,1.3,73,0.00,,,0.00,WUHU216HW,2013-02-22 14:02:00,
2013-02-22 07:07:00,25.0,17.6,29.93,East,90,0.9,1.3,73,0.00,,,0.00,WUHU216HW,2013-02-22 14:07:00,
2013-02-22 07:12:00,25.0,17.8,29.93,East,90,1.1,1.1,74,0.00,,,0.00,WUHU216HW,2013-02-22 14:12:00,
2013-02-22 07:17:00,25.2,18.0,29.93,East,90,1.3,1.3,74,0.00,,,0.00,WUHU216HW,2013-02-22 14:17:00,
2013-02-22 07:22:00,25.2,18.0,29.93,East,90,0.7,1.3,74,0.00,,,0.00,WUHU216HW,2013-02-22 14:22:00,
2013-02-22 07:27:00,25.4,18.2,29.94,SE,135,0.9,1.3,74,0.00,,,0.00,WUHU216HW,2013-02-22 14:27:00,
2013-02-22 07:32:00,25.6,18.4,29.94,SE,135,0.0,1.3,74,0.00,,,0.00,WUHU216HW,2013-02-22 14:32:00,
2013-02-22 07:37:00,25.6,18.4,29.93,ESE,113,1.3,1.3,74,0.00,,,0.00,WUHU216HW,2013-02-22 14:37:00,
2013-02-22 07:42:00,25.9,18.7,29.93,SE,135,1.3,2.2,74,0.00,,,0.00,WUHU216HW,2013-02-22 14:42:00,
2013-02-22 07:47:00,26.3,18.7,29.93,SE,135,1.8,2.2,73,0.00,,,0.00,WUHU216HW,2013-02-22 14:47:00,
2013-02-22 07:52:00,26.3,18.7,29.93,SE,135,1.8,2.2,73,0.00,,,0.00,WUHU216HW,2013-02-22 14:52:00,
2013-02-22 07:57:00,26.6,19.1,29.93,SE,135,0.4,2.2,73,0.00,,,0.00,WUHU216HW,2013-02-22 14:57:00,
2013-02-22 08:02:00,26.8,19.3,29.93,South,180,0.0,1.1,73,0.00,,,0.00,WUHU216HW,2013-02-22 15:02:00,
2013-02-22 08:07:00,27.0,19.4,29.93,WSW,248,2.5,3.1,73,0.00,,,0.00,WUHU216HW,2013-02-22 15:07:00,
2013-02-22 08:12:00,27.0,19.4,29.93,SW,225,1.3,3.1,73,0.00,,,0.00,WUHU216HW,2013-02-22 15:12:00,
2013-02-22 08:17:00,27.0,19.8,29.93,SE,135,4.7,6.3,74,0.00,,,0.00,WUHU216HW,2013-02-22 15:17:00,
2013-02-22 08:22:00,27.4,20.4,29.93,South,180,5.4,6.3,75,0.00,,,0.00,WUHU216HW,2013-02-22 15:22:00,
2013-02-22 08:27:00,27.7,20.8,29.93,SSW,203,5.4,5.4,75,0.00,,,0.00,WUHU216HW,2013-02-22 15:27:00,
2013-02-22 08:32:00,28.1,20.5,29.93,SSW,203,6.0,6.0,73,0.00,,,0.00,WUHU216HW,2013-02-22 15:32:00,
2013-02-22 08:37:00,28.3,20.7,29.93,SSW,203,5.4,6.7,73,0.00,,,0.00,WUHU216HW,2013-02-22 15:37:00,
2013-02-22 08:42:00,28.3,20.7,29.93,South,180,4.0,6.7,73,0.00,,,0.00,WUHU216HW,2013-02-22 15:42:00,
2013-02-22 08:47:00,28.3,20.4,29.93,SSW,203,4.5,6.3,72,0.00,,,0.00,WUHU216HW,2013-02-22 15:47:00,
2013-02-22 08:52:00,28.3,20.4,29.93,SSW,203,4.3,4.5,72,0.00,,,0.00,WUHU216HW,2013-02-22 15:52:00,
2013-02-22 08:57:00,28.4,20.6,29.93,SSW,203,2.5,4.7,72,0.00,,,0.00,WUHU216HW,2013-02-22 15:57:00,
2013-02-22 09:02:00,29.0,20.8,29.93,SSE,158,5.8,5.8,71,0.00,,,0.00,WUHU216HW,2013-02-22 16:02:00,
2013-02-22 09:07:00,29.5,20.6,29.93,SW,225,7.2,7.4,69,0.00,,,0.00,WUHU216HW,2013-02-22 16:07:00,
2013-02-22 09:12:00,30.2,20.9,29.93,South,180,4.7,7.4,68,0.00,,,0.00,WUHU216HW,2013-02-22 16:12:00,
2013-02-22 09:17:00,30.6,20.9,29.93,SSW,203,5.4,6.9,67,0.00,,,0.00,WUHU216HW,2013-02-22 16:17:00,
2013-02-22 09:22:00,30.6,20.9,29.93,SSW,203,5.4,5.8,67,0.00,,,0.00,WUHU216HW,2013-02-22 16:22:00,
2013-02-22 09:27:00,30.4,20.7,29.93,South,180,3.4,5.8,67,0.00,,,0.00,WUHU216HW,2013-02-22 16:27:00,
2013-02-22 09:32:00,30.6,20.9,29.93,SSW,203,2.0,4.7,67,0.00,,,0.00,WUHU216HW,2013-02-22 16:32:00,
2013-02-22 09:37:00,30.8,21.1,29.92,South,180,2.2,4.3,67,0.00,,,0.00,WUHU216HW,2013-02-22 16:37:00,
2013-02-22 09:42:00,31.1,21.4,29.93,SSE,158,2.5,4.5,67,0.00,,,0.00,WUHU216HW,2013-02-22 16:42:00,
2013-02-22 09:47:00,31.7,22.0,29.92,SSE,158,0.9,4.5,67,0.00,,,0.00,WUHU216HW,2013-02-22 16:47:00,
2013-02-22 09:52:00,32.4,23.1,29.92,ESE,113,2.5,2.5,68,0.00,,,0.00,WUHU216HW,2013-02-22 16:52:00,
2013-02-22 09:57:00,33.1,23.3,29.92,SE,135,2.5,3.4,67,0.00,,,0.00,WUHU216HW,2013-02-22 16:57:00,
2013-02-22 10:02:00,33.7,23.4,29.92,SSE,158,3.8,3.8,66,0.00,,,0.00,WUHU216HW,2013-02-22 17:02:00,
2013-02-22 10:07:00,34.2,23.2,29.92,SE,135,2.5,4.5,64,0.00,,,0.00,WUHU216HW,2013-02-22 17:07:00,
2013-02-22 10:12:00,34.6,23.9,29.92,SSE,158,2.2,4.5,65,0.00,,,0.00,WUHU216HW,2013-02-22 17:12:00,
2013-02-22 10:17:00,34.9,23.9,29.92,SSE,158,2.9,4.0,64,0.00,,,0.00,WUHU216HW,2013-02-22 17:17:00,
2013-02-22 10:22:00,34.9,23.9,29.91,South,180,6.9,6.9,64,0.00,,,0.00,WUHU216HW,2013-02-22 17:22:00,
2013-02-22 10:27:00,34.9,23.2,29.92,SSW,203,4.5,8.5,62,0.00,,,0.00,WUHU216HW,2013-02-22 17:27:00,
2013-02-22 10:32:00,34.9,22.9,29.92,South,180,6.3,8.5,61,0.00,,,0.00,WUHU216HW,2013-02-22 17:32:00,
2013-02-22 10:37:00,35.1,23.0,29.92,SSW,203,4.9,6.7,61,0.00,,,0.00,WUHU216HW,2013-02-22 17:37:00,
2013-02-22 10:42:00,35.3,23.2,29.92,South,180,6.7,8.5,61,0.00,,,0.00,WUHU216HW,2013-02-22 17:42:00,
2013-02-22 10:47:00,35.8,23.4,29.92,South,180,6.9,8.5,60,0.00,,,0.00,WUHU216HW,2013-02-22 17:47:00,
2013-02-22 10:52:00,36.4,23.4,29.92,SSE,158,4.9,8.1,59,0.00,,,0.00,WUHU216HW,2013-02-22 17:52:00,
2013-02-22 10:57:00,36.9,24.0,29.91,SSE,158,5.4,6.3,59,0.00,,,0.00,WUHU216HW,2013-02-22 17:57:00,
2013-02-22 11:02:00,37.1,23.2,29.91,SSE,158,5.4,6.7,57,0.00,,,0.00,WUHU216HW,2013-02-22 18:02:00,
2013-02-22 11:07:00,37.1,24.1,29.90,SE,135,3.6,6.7,59,0.00,,,0.00,WUHU216HW,2013-02-22 18:07:00,
2013-02-22 11:12:00,37.1,22.8,29.90,SW,225,5.1,6.5,56,0.00,,,0.00,WUHU216HW,2013-02-22 18:12:00,
2013-02-22 11:17:00,37.1,22.0,29.90,SSW,203,6.9,9.2,54,0.00,,,0.00,WUHU216HW,2013-02-22 18:17:00,
2013-02-22 11:22:00,37.1,21.1,29.90,SSE,158,8.1,9.2,52,0.00,,,0.00,WUHU216HW,2013-02-22 18:22:00,
2013-02-22 11:27:00,37.4,21.8,29.90,SSE,158,10.7,11.0,53,0.00,,,0.00,WUHU216HW,2013-02-22 18:27:00,
2013-02-22 11:32:00,37.1,19.7,29.90,SW,225,4.7,11.0,49,0.00,,,0.00,WUHU216HW,2013-02-22 18:32:00,
2013-02-22 11:37:00,37.1,20.6,29.89,South,180,9.8,10.3,51,0.00,,,0.00,WUHU216HW,2013-02-22 18:37:00,
2013-02-22 11:42:00,37.1,21.1,29.89,SSE,158,13.0,13.0,52,0.00,,,0.00,WUHU216HW,2013-02-22 18:42:00,
2013-02-22 11:47:00,37.1,21.5,29.89,SSW,203,6.7,13.0,53,0.00,,,0.00,WUHU216HW,2013-02-22 18:47:00,
2013-02-22 11:52:00,37.3,21.3,29.88,South,180,10.5,10.5,52,0.00,,,0.00,WUHU216HW,2013-02-22 18:52:00,
2013-02-22 11:57:00,37.6,21.5,29.88,SSE,158,6.7,10.5,52,0.00,,,0.00,WUHU216HW,2013-02-22 18:57:00,
2013-02-22 12:02:00,38.2,21.6,29.88,South,180,7.8,9.8,51,0.00,,,0.00,WUHU216HW,2013-02-22 19:02:00,
2013-02-22 12:07:00,38.5,22.0,29.88,SSE,158,6.3,8.3,51,0.00,,,0.00,WUHU216HW,2013-02-22 19:07:00,
2013-02-22 12:12:00,38.7,21.7,29.87,SSE,158,10.1,10.1,50,0.00,,,0.00,WUHU216HW,2013-02-22 19:12:00,
2013-02-22 12:17:00,39.1,21.4,29.87,SSW,203,7.6,10.1,49,0.00,,,0.00,WUHU216HW,2013-02-22 19:17:00,
2013-02-22 12:22:00,39.1,20.4,29.87,SSW,203,10.3,11.0,47,0.00,,,0.00,WUHU216HW,2013-02-22 19:22:00,
2013-02-22 12:27:00,38.9,21.3,29.86,SSE,158,6.3,11.0,49,0.00,,,0.00,WUHU216HW,2013-02-22 19:27:00,
2013-02-22 12:32:00,39.2,22.1,29.86,SSE,158,11.6,13.4,50,0.00,,,0.00,WUHU216HW,2013-02-22 19:32:00,
2013-02-22 12:37:00,39.6,22.0,29.86,South,180,11.9,13.4,49,0.00,,,0.00,WUHU216HW,2013-02-22 19:37:00,
2013-02-22 12:42:00,40.0,22.2,29.85,SSE,158,7.8,12.8,49,0.00,,,0.00,WUHU216HW,2013-02-22 19:42:00,
2013-02-22 12:47:00,40.0,22.2,29.85,SSE,158,6.3,11.9,49,0.00,,,0.00,WUHU216HW,2013-02-22 19:47:00,
2013-02-22 12:52:00,39.8,22.2,29.85,SSE,158,8.5,14.5,49,0.00,,,0.00,WUHU216HW,2013-02-22 19:52:00,
2013-02-22 12:57:00,39.8,22.2,29.85,SSE,158,9.6,14.5,49,0.00,,,0.00,WUHU216HW,2013-02-22 19:57:00,
2013-02-22 13:02:00,40.1,23.0,29.84,SSE,158,9.8,14.5,50,0.00,,,0.00,WUHU216HW,2013-02-22 20:02:00,
2013-02-22 13:07:00,40.5,21.7,29.84,SSW,203,7.2,14.5,47,0.00,,,0.00,WUHU216HW,2013-02-22 20:07:00,
2013-02-22 13:15:00,40.9,22.1,29.83,South,180,7.6,8.7,47,0.00,,,0.00,WUHU216HW,2013-02-22 20:15:00,
2013-02-22 13:22:00,41.6,23.2,29.83,South,180,10.5,10.5,48,0.00,,,0.00,WUHU216HW,2013-02-22 20:22:00,
2013-02-22 13:27:00,41.9,22.0,29.83,SSW,203,12.1,12.1,45,0.00,,,0.00,WUHU216HW,2013-02-22 20:27:00,
2013-02-22 13:32:00,41.9,22.0,29.83,SSE,158,12.8,12.8,45,0.00,,,0.00,WUHU216HW,2013-02-22 20:32:00,
2013-02-22 13:37:00,41.9,21.5,29.82,SSW,203,6.3,12.8,44,0.00,,,0.00,WUHU216HW,2013-02-22 20:37:00,
2013-02-22 13:42:00,42.1,22.1,29.82,SSW,203,8.5,9.2,45,0.00,,,0.00,WUHU216HW,2013-02-22 20:42:00,
2013-02-22 13:47:00,42.1,21.6,29.82,SSW,203,9.2,9.2,44,0.00,,,0.00,WUHU216HW,2013-02-22 20:47:00,
2013-02-22 13:52:00,42.1,21.6,29.82,SSW,203,6.3,9.2,44,0.00,,,0.00,WUHU216HW,2013-02-22 20:52:00,
2013-02-22 13:57:00,41.9,21.0,29.81,SW,225,9.2,9.2,43,0.00,,,0.00,WUHU216HW,2013-02-22 20:57:00,
2013-02-22 14:02:00,41.6,20.6,29.81,SW,225,12.1,12.1,43,0.00,,,0.00,WUHU216HW,2013-02-22 21:02:00,
2013-02-22 14:07:00,41.0,19.1,29.80,WSW,248,16.8,16.8,41,0.00,,,0.00,WUHU216HW,2013-02-22 21:07:00,
2013-02-22 14:12:00,41.0,20.6,29.81,South,180,6.9,16.8,44,0.00,,,0.00,WUHU216HW,2013-02-22 21:12:00,
2013-02-22 14:17:00,41.4,20.4,29.81,South,180,6.9,12.8,43,0.00,,,0.00,WUHU216HW,2013-02-22 21:17:00,
2013-02-22 14:22:00,41.4,21.0,29.80,SSW,203,7.6,9.6,44,0.00,,,0.00,WUHU216HW,2013-02-22 21:22:00,
2013-02-22 14:27:00,41.8,21.9,29.80,SSW,203,5.8,9.2,45,0.00,,,0.00,WUHU216HW,2013-02-22 21:27:00,
2013-02-22 14:32:00,41.8,22.3,29.80,South,180,11.9,11.9,46,0.00,,,0.00,WUHU216HW,2013-02-22 21:32:00,
2013-02-22 14:37:00,41.8,22.3,29.80,SSW,203,6.9,11.9,46,0.00,,,0.00,WUHU216HW,2013-02-22 21:37:00,
2013-02-22 14:44:00,41.8,21.3,29.80,SSW,203,10.7,12.8,44,0.00,,,0.00,WUHU216HW,2013-02-22 21:44:00,
2013-02-22 14:49:00,41.8,21.3,29.80,SW,225,10.7,12.8,44,0.00,,,0.00,WUHU216HW,2013-02-22 21:49:00,
2013-02-22 14:54:00,41.4,21.0,29.79,SW,225,7.4,10.7,44,0.00,,,0.00,WUHU216HW,2013-02-22 21:54:00,
2013-02-22 14:59:00,40.9,20.0,29.79,SW,225,14.5,14.5,43,0.00,,,0.00,WUHU216HW,2013-02-22 21:59:00,
2013-02-22 15:04:00,40.7,20.4,29.79,SW,225,11.4,14.5,44,0.00,,,0.00,WUHU216HW,2013-02-22 22:04:00,
2013-02-22 15:09:00,40.7,20.4,29.79,SSW,203,9.6,13.2,44,0.00,,,0.00,WUHU216HW,2013-02-22 22:09:00,
2013-02-22 15:14:00,40.7,19.8,29.79,SW,225,12.3,12.3,43,0.00,,,0.00,WUHU216HW,2013-02-22 22:14:00,
2013-02-22 15:19:00,40.7,21.3,29.79,SW,225,14.3,14.3,46,0.00,,,0.00,WUHU216HW,2013-02-22 22:19:00,
2013-02-22 15:24:00,41.2,20.8,29.79,WSW,248,11.0,14.8,44,0.00,,,0.00,WUHU216HW,2013-02-22 22:24:00,
2013-02-22 15:29:00,41.6,20.6,29.78,SW,225,12.5,14.8,43,0.00,,,0.00,WUHU216HW,2013-02-22 22:29:00,
2013-02-22 15:34:00,42.1,21.2,29.78,SW,225,10.7,13.4,43,0.00,,,0.00,WUHU216HW,2013-02-22 22:34:00,
2013-02-22 15:39:00,42.1,20.6,29.78,SSW,203,12.8,17.4,42,0.00,,,0.00,WUHU216HW,2013-02-22 22:39:00,
2013-02-22 15:44:00,41.8,21.3,29.78,SSE,158,7.6,17.4,44,0.00,,,0.00,WUHU216HW,2013-02-22 22:44:00,
2013-02-22 15:49:00,41.4,21.5,29.78,South,180,9.4,16.3,45,0.00,,,0.00,WUHU216HW,2013-02-22 22:49:00,
2013-02-22 15:54:00,41.0,21.7,29.78,SW,225,8.7,12.1,46,0.00,,,0.00,WUHU216HW,2013-02-22 22:54:00,
2013-02-22 15:59:00,41.0,22.2,29.78,South,180,11.4,11.9,47,0.00,,,0.00,WUHU216HW,2013-02-22 22:59:00,
2013-02-22 16:04:00,41.4,21.5,29.77,SSW,203,11.4,15.0,45,0.00,,,0.00,WUHU216HW,2013-02-22 23:04:00,
2013-02-22 16:09:00,41.2,20.8,29.77,SSW,203,8.7,15.0,44,0.00,,,0.00,WUHU216HW,2013-02-22 23:09:00,
2013-02-22 16:14:00,41.0,20.6,29.77,SSW,203,6.9,14.3,44,0.00,,,0.00,WUHU216HW,2013-02-22 23:14:00,
2013-02-22 16:19:00,41.4,21.5,29.76,SW,225,4.9,11.2,45,0.00,,,0.00,WUHU216HW,2013-02-22 23:19:00,
2013-02-22 16:24:00,41.2,20.8,29.76,South,180,16.3,16.3,44,0.00,,,0.00,WUHU216HW,2013-02-22 23:24:00,
2013-02-22 16:29:00,40.7,21.3,29.76,South,180,11.4,16.3,46,0.00,,,0.00,WUHU216HW,2013-02-22 23:29:00,
2013-02-22 16:34:00,40.3,21.5,29.76,South,180,12.1,14.1,47,0.00,,,0.00,WUHU216HW,2013-02-22 23:34:00,
2013-02-22 16:39:00,40.3,21.5,29.76,SSE,158,12.1,14.1,47,0.00,,,0.00,WUHU216HW,2013-02-22 23:39:00,
2013-02-22 16:44:00,40.1,21.4,29.76,SSE,158,11.9,15.0,47,0.00,,,0.00,WUHU216HW,2013-02-22 23:44:00,
2013-02-22 16:49:00,40.0,21.3,29.75,SSE,158,15.9,15.9,47,0.00,,,0.00,WUHU216HW,2013-02-22 23:49:00,
2013-02-22 16:54:00,39.6,20.3,29.76,South,180,12.1,15.9,46,0.00,,,0.00,WUHU216HW,2013-02-22 23:54:00,
2013-02-22 16:59:00,39.4,20.7,29.76,SSE,158,10.5,13.9,47,0.00,,,0.00,WUHU216HW,2013-02-22 23:59:00,
2013-02-22 17:04:00,39.1,20.4,29.75,SSE,158,11.2,15.7,47,0.00,,,0.00,WUHU216HW,2013-02-23 00:04:00,
2013-02-22 17:09:00,39.2,21.1,29.75,SSE,158,16.1,16.1,48,0.00,,,0.00,WUHU216HW,2013-02-23 00:09:00,
2013-02-22 17:14:00,39.4,20.7,29.75,SSE,158,8.9,16.1,47,0.00,,,0.00,WUHU216HW,2013-02-23 00:14:00,
2013-02-22 17:19:00,39.1,20.4,29.75,SE,135,9.4,14.3,47,0.00,,,0.00,WUHU216HW,2013-02-23 00:19:00,
2013-02-22 17:24:00,38.2,19.6,29.76,South,180,13.9,13.9,47,0.00,,,0.00,WUHU216HW,2013-02-23 00:24:00,
2013-02-22 17:29:00,37.4,19.4,29.76,South,180,11.6,14.5,48,0.00,,,0.00,WUHU216HW,2013-02-23 00:29:00,
2013-02-22 17:34:00,37.1,20.2,29.76,SSE,158,9.2,14.5,50,0.00,,,0.00,WUHU216HW,2013-02-23 00:34:00,
2013-02-22 17:39:00,36.5,19.7,29.75,SSE,158,6.9,13.0,50,0.00,,,0.00,WUHU216HW,2013-02-23 00:39:00,
2013-02-22 17:44:00,36.5,20.2,29.75,SSE,158,6.3,11.4,51,0.00,,,0.00,WUHU216HW,2013-02-23 00:44:00,
2013-02-22 17:49:00,36.2,20.3,29.75,SSE,158,7.4,11.0,52,0.00,,,0.00,WUHU216HW,2013-02-23 00:49:00,
2013-02-22 17:54:00,36.0,20.1,29.76,South,180,4.9,7.6,52,0.00,,,0.00,WUHU216HW,2013-02-23 00:54:00,
2013-02-22 17:59:00,35.6,20.2,29.76,SSE,158,7.2,8.3,53,0.00,,,0.00,WUHU216HW,2013-02-23 00:59:00,
2013-02-22 18:04:00,35.6,20.2,29.76,SSE,158,7.6,9.8,53,0.00,,,0.00,WUHU216HW,2013-02-23 01:04:00,
2013-02-22 18:09:00,35.6,20.2,29.76,SE,135,4.9,9.8,53,0.00,,,0.00,WUHU216HW,2013-02-23 01:09:00,
2013-02-22 18:14:00,35.5,20.4,29.76,SSE,158,4.7,7.4,54,0.00,,,0.00,WUHU216HW,2013-02-23 01:14:00,
2013-02-22 18:19:00,35.3,20.3,29.76,South,180,7.6,7.8,54,0.00,,,0.00,WUHU216HW,2013-02-23 01:19:00,
2013-02-22 18:24:00,35.3,20.7,29.75,SSE,158,9.2,9.2,55,0.00,,,0.00,WUHU216HW,2013-02-23 01:24:00,
2013-02-22 18:29:00,35.3,20.3,29.75,SSE,158,7.6,10.1,54,0.00,,,0.00,WUHU216HW,2013-02-23 01:29:00,
2013-02-22 18:34:00,35.3,20.3,29.75,SSE,158,5.4,10.1,54,0.00,,,0.00,WUHU216HW,2013-02-23 01:34:00,
2013-02-22 18:39:00,35.1,20.5,29.75,SSE,158,6.3,9.8,55,0.00,,,0.00,WUHU216HW,2013-02-23 01:39:00,
2013-02-22 18:44:00,34.9,20.3,29.75,SSE,158,5.4,9.8,55,0.00,,,0.00,WUHU216HW,2013-02-23 01:44:00,
2013-02-22 18:49:00,34.7,20.2,29.75,SSE,158,11.9,11.9,55,0.00,,,0.00,WUHU216HW,2013-02-23 01:49:00,
2013-02-22 18:54:00,34.9,20.3,29.75,SSE,158,6.7,11.9,55,0.00,,,0.00,WUHU216HW,2013-02-23 01:54:00,
2013-02-22 18:59:00,34.9,20.3,29.75,SSE,158,7.6,10.1,55,0.00,,,0.00,WUHU216HW,2013-02-23 01:59:00,
2013-02-22 19:04:00,34.7,20.2,29.75,SSE,158,12.8,15.2,55,0.00,,,0.00,WUHU216HW,2013-02-23 02:04:00,
2013-02-22 19:09:00,34.9,20.3,29.74,SSE,158,17.2,17.2,55,0.00,,,0.00,WUHU216HW,2013-02-23 02:09:00,
2013-02-22 19:14:00,34.9,20.3,29.74,SSW,203,10.5,17.2,55,0.00,,,0.00,WUHU216HW,2013-02-23 02:14:00,
2013-02-22 19:19:00,34.9,20.3,29.74,SSE,158,13.4,14.8,55,0.00,,,0.00,WUHU216HW,2013-02-23 02:19:00,
2013-02-22 19:24:00,34.7,20.2,29.74,SSE,158,12.1,16.1,55,0.00,,,0.00,WUHU216HW,2013-02-23 02:24:00,
2013-02-22 19:29:00,34.7,20.2,29.74,SSE,158,10.5,16.1,55,0.00,,,0.00,WUHU216HW,2013-02-23 02:29:00,
2013-02-22 19:34:00,34.7,20.2,29.74,SSW,203,13.9,16.6,55,0.00,,,0.00,WUHU216HW,2013-02-23 02:34:00,
2013-02-22 19:39:00,34.6,20.0,29.73,South,180,17.0,17.4,55,0.00,,,0.00,WUHU216HW,2013-02-23 02:39:00,
2013-02-22 19:44:00,34.6,20.0,29.73,South,180,15.4,17.4,55,0.00,,,0.00,WUHU216HW,2013-02-23 02:44:00,
2013-02-22 19:49:00,34.6,20.0,29.73,South,180,13.0,17.2,55,0.00,,,0.00,WUHU216HW,2013-02-23 02:49:00,
2013-02-22 19:54:00,34.6,20.0,29.73,SSE,158,20.1,20.1,55,0.00,,,0.00,WUHU216HW,2013-02-23 02:54:00,
2013-02-22 19:59:00,34.7,20.2,29.73,SSE,158,15.9,20.1,55,0.00,,,0.00,WUHU216HW,2013-02-23 02:59:00,
2013-02-22 20:04:00,34.7,20.2,29.73,SSE,158,14.8,18.6,55,0.00,,,0.00,WUHU216HW,2013-02-23 03:04:00,
2013-02-22 20:09:00,34.9,19.9,29.73,SSE,158,13.6,17.9,54,0.00,,,0.00,WUHU216HW,2013-02-23 03:09:00,
2013-02-22 20:14:00,34.9,19.9,29.73,SSE,158,13.6,17.9,54,0.00,,,0.00,WUHU216HW,2013-02-23 03:14:00,
2013-02-22 20:19:00,34.9,19.9,29.73,SSE,158,14.3,17.9,54,0.00,,,0.00,WUHU216HW,2013-02-23 03:19:00,
2013-02-22 20:24:00,34.7,19.7,29.73,SE,135,14.3,16.8,54,0.00,,,0.00,WUHU216HW,2013-02-23 03:24:00,
2013-02-22 20:29:00,34.7,20.2,29.73,SSE,158,10.5,16.8,55,0.00,,,0.00,WUHU216HW,2013-02-23 03:29:00,
2013-02-22 20:34:00,34.6,20.0,29.73,South,180,9.2,14.3,55,0.00,,,0.00,WUHU216HW,2013-02-23 03:34:00,
2013-02-22 20:39:00,34.6,20.0,29.73,South,180,11.0,11.4,55,0.00,,,0.00,WUHU216HW,2013-02-23 03:39:00,
2013-02-22 20:44:00,34.4,19.8,29.73,South,180,14.1,14.1,55,0.00,,,0.00,WUHU216HW,2013-02-23 03:44:00,
2013-02-22 20:49:00,34.4,20.3,29.73,South,180,14.3,15.4,56,0.00,,,0.00,WUHU216HW,2013-02-23 03:49:00,
2013-02-22 20:54:00,34.6,20.4,29.73,SSE,158,14.8,15.4,56,0.00,,,0.00,WUHU216HW,2013-02-23 03:54:00,
2013-02-22 20:59:00,34.6,20.4,29.72,SSE,158,15.9,15.9,56,0.00,,,0.00,WUHU216HW,2013-02-23 03:59:00,
2013-02-22 21:04:00,34.6,20.4,29.72,SSE,158,13.0,15.9,56,0.00,,,0.00,WUHU216HW,2013-02-23 04:04:00,
2013-02-22 21:09:00,34.7,20.6,29.72,SSE,158,10.7,14.8,56,0.00,,,0.00,WUHU216HW,2013-02-23 04:09:00,
2013-02-22 21:14:00,34.9,20.3,29.72,South,180,13.2,14.1,55,0.00,,,0.00,WUHU216HW,2013-02-23 04:14:00,
2013-02-22 21:19:00,34.9,20.3,29.73,SSE,158,12.5,14.1,55,0.00,,,0.00,WUHU216HW,2013-02-23 04:19:00,
2013-02-22 21:24:00,34.9,20.8,29.73,South,180,8.9,13.4,56,0.00,,,0.00,WUHU216HW,2013-02-23 04:24:00,
2013-02-22 21:29:00,34.9,20.8,29.72,South,180,12.8,13.4,56,0.00,,,0.00,WUHU216HW,2013-02-23 04:29:00,
2013-02-22 21:34:00,34.9,20.8,29.72,South,180,14.8,14.8,56,0.00,,,0.00,WUHU216HW,2013-02-23 04:34:00,
2013-02-22 21:39:00,35.1,21.0,29.72,SSE,158,12.1,17.9,56,0.00,,,0.00,WUHU216HW,2013-02-23 04:39:00,
2013-02-22 21:44:00,35.1,21.0,29.72,SSE,158,10.5,17.9,56,0.00,,,0.00,WUHU216HW,2013-02-23 04:44:00,
2013-02-22 21:49:00,35.3,21.2,29.71,SSE,158,13.9,14.8,56,0.00,,,0.00,WUHU216HW,2013-02-23 04:49:00,
2013-02-22 21:54:00,35.5,21.3,29.71,South,180,12.3,16.8,56,0.00,,,0.00,WUHU216HW,2013-02-23 04:54:00,
2013-02-22 21:59:00,35.5,21.3,29.72,South,180,17.7,17.7,56,0.00,,,0.00,WUHU216HW,2013-02-23 04:59:00,
2013-02-22 22:00:00,35.5,21.3,29.72,SSE,158,10.5,17.7,56,0.00,,,0.00,WUHU216HW,2013-02-23 05:00:00,
2013-02-22 22:05:00,35.6,21.5,29.72,South,180,8.9,17.7,56,0.00,,,0.00,WUHU216HW,2013-02-23 05:05:00,
2013-02-22 22:10:00,35.6,21.5,29.72,SSE,158,10.5,15.0,56,0.00,,,0.00,WUHU216HW,2013-02-23 05:10:00,
2013-02-22 22:15:00,35.5,21.8,29.72,SSE,158,8.7,13.0,57,0.00,,,0.00,WUHU216HW,2013-02-23 05:15:00,
2013-02-22 22:20:00,35.3,21.6,29.72,SSE,158,9.2,11.2,57,0.00,,,0.00,WUHU216HW,2013-02-23 05:20:00,
2013-02-22 22:25:00,35.1,21.8,29.72,SSE,158,5.4,9.6,58,0.00,,,0.00,WUHU216HW,2013-02-23 05:25:00,
2013-02-22 22:30:00,34.9,21.6,29.72,SE,135,4.9,7.4,58,0.00,,,0.00,WUHU216HW,2013-02-23 05:30:00,
2013-02-22 22:35:00,34.9,21.6,29.72,South,180,6.3,8.3,58,0.00,,,0.00,WUHU216HW,2013-02-23 05:35:00,
2013-02-22 22:40:00,34.9,21.6,29.71,SE,135,5.6,8.3,58,0.00,,,0.00,WUHU216HW,2013-02-23 05:40:00,
2013-02-22 22:45:00,34.9,22.1,29.71,SSE,158,7.6,7.8,59,0.00,,,0.00,WUHU216HW,2013-02-23 05:45:00,
2013-02-22 22:50:00,34.9,22.1,29.71,SSE,158,6.7,7.8,59,0.00,,,0.00,WUHU216HW,2013-02-23 05:50:00,
2013-02-22 22:55:00,34.7,21.9,29.71,SSE,158,5.1,7.6,59,0.00,,,0.00,WUHU216HW,2013-02-23 05:55:00,
2013-02-22 23:00:00,34.6,21.7,29.70,SE,135,4.3,5.4,59,0.00,,,0.00,WUHU216HW,2013-02-23 06:00:00,
2013-02-22 23:05:00,34.6,21.7,29.70,SSE,158,6.0,6.9,59,0.00,,,0.00,WUHU216HW,2013-02-23 06:05:00,
2013-02-22 23:10:00,34.6,21.7,29.70,South,180,5.1,6.9,59,0.00,,,0.00,WUHU216HW,2013-02-23 06:10:00,
2013-02-22 23:15:00,34.6,22.1,29.70,South,180,4.0,6.0,60,0.00,,,0.00,WUHU216HW,2013-02-23 06:15:00,
2013-02-22 23:20:00,34.6,22.1,29.70,South,180,2.7,6.0,60,0.00,,,0.00,WUHU216HW,2013-02-23 06:20:00,
2013-02-22 23:25:00,34.4,22.0,29.70,SSE,158,1.8,4.7,60,0.00,,,0.00,WUHU216HW,2013-02-23 06:25:00,
2013-02-22 23:30:00,34.2,21.8,29.69,SSE,158,1.6,3.4,60,0.00,,,0.00,WUHU216HW,2013-02-23 06:30:00,
2013-02-22 23:35:00,34.2,21.8,29.69,South,180,3.4,4.7,60,0.00,,,0.00,WUHU216HW,2013-02-23 06:35:00,
2013-02-22 23:40:00,34.2,21.8,29.69,South,180,4.7,4.9,60,0.00,,,0.00,WUHU216HW,2013-02-23 06:40:00,
2013-02-22 23:45:00,34.2,22.1,29.69,South,180,4.0,6.5,61,0.00,,,0.00,WUHU216HW,2013-02-23 06:45:00,
2013-02-22 23:50:00,34.2,22.1,29.69,SSW,203,2.9,6.5,61,0.00,,,0.00,WUHU216HW,2013-02-23 06:50:00,
2013-02-22 23:55:00,34.2,22.1,29.69,SSW,203,3.1,6.0,61,0.00,,,0.00,WUHU216HW,2013-02-23 06:55:00,